STARLINK-1633, 46171

Orbit data source: Space-Track

STARLINK-1633, 46171 is a payload satellite owned by SpaceX/Seattle (US) in LEO that was launched on Tue, 18 Aug 2020 UTC via an FALCON 9 launch vehicle from the Air Force Eastern Test Range (AFETR). Payload-class satellites include a variety of spacecraft equipped with specific instruments for various scientific and technological missions. These include communications satellites like Starlink; space stations such as the ISS; scientific satellites like the Hubble; Earth observation satellites from companies like Planet Labs, Umbra, and HawkEye 360; GPS; miniature CubeSats for education and research; and military/defense satellites.

Loading next visibility...
Identifier
46171, 2020-057BG
Orbit
LEO
Country
Flag of USUS
Related business
Manufacturer
SpaceX/Seattle
Mission
Partially operational Commercial Communications
Bus & Motor
STARLINK, Unknown motor
Mass
260 kg wet, ~248 kg dry
Launch date (UTC)
2020-08-18 (6 years ago)
Launch vehicle
FALCON 9
Launch site
Air Force Eastern Test Range (AFETR)
Object type
Payload
Rocket body
Debris
Shape & HBR
Box + 1 Pan, 10.1 m
Radar Cross Section
13.562 m², Large (>1 m²)

Expand to show TLE details & history
Last TLE update: 2 hours ago

TLE from 2 hours ago
0 STARLINK-1633
1 46171U 20057BG  26123.25003471  .00111075  00000-0  82073-3 0  9997
2 46171  53.0383 351.0595 0006856 148.8803  31.3765 15.72134278  5806
Epoch: 2026-05-03T06:00Z
TLE epoch observation values (Epoch: 2026-05-03T06:00:02.998Z)
Latitude
-0.32115°
Longitude
-139.86896°
Altitude
349.804 km
Speed
7.703 km/s
True Right ascension
11h 25m 11s
True Declination
0° 19' 09"
Sunlit
Object was in full shadow at epoch
Visualization orbit readout
Latitude
Unknown
Longitude
Unknown
Altitude
Unknown
Speed
Unknown
Apparent Right ascension
Unknown
Apparent Declination
Unknown
Sunlit
N/A
Visualization observer readout
Local Sidereal Time
15:48:09
Azimuth
Unknown
Elevation
Unknown
Doppler factor
Unknown
Orbital elements
Apogee altitude
357.694 km
Perigee altitude
348.464 km
Semi-major axis
6,731.216 km
Eccentricity
0.00069
Inclination
53.0383°
RAAN
351.0595°
Arg. of periapsis
148.8803°
True anomaly
31.41744°
Mean anomaly
31.3765°
Eccentric anomaly
31.39696°
Mean motion
3.93009 °/min
Orbital period
91.6 mins
BSTAR
0.00082073
Loading maneuver chart data...
Computing Atmospheric mass density...
Loading historical data...
Loading historical data...
Loading historical data...
Loading historical data...
Loading historical data...
Loading historical data...
Loading historical data...

Documentation

Showing up to 5 results
|